TimeWET,TemperatureF,Dew PointF,Humidity,Sea Level PressureIn,VisibilityMPH,Wind Direction,Wind SpeedMPH,Gust SpeedMPH,PrecipitationIn,Events,Conditions,WindDirDegrees,DateUTC
12:00 AM,66,54,57,30.09,6,South,5.8,,,,,170,2012-10-03 00:00:00
12:00 AM,66.2,55.4,68,30.15,-9999.0,South,5.8,-,N/A,,Clear,170,2012-10-03 00:00:00
1:00 AM,64.4,55.4,73,30.12,-9999.0,ESE,3.5,-,N/A,,Clear,120,2012-10-03 01:00:00
2:00 AM,64.4,53.6,68,30.09,-9999.0,ESE,5.8,-,N/A,,Clear,110,2012-10-03 02:00:00
3:00 AM,64,54,61,30.06,6,ESE,8.1,,,,,110,2012-10-03 03:00:00
3:00 AM,64.4,53.6,68,30.09,-9999.0,ESE,8.1,-,N/A,,Clear,110,2012-10-03 03:00:00
4:00 AM,64.4,55.4,73,30.09,-9999.0,SSE,6.9,-,N/A,,Clear,150,2012-10-03 04:00:00
6:00 AM,62,52,62,30.06,6,ESE,9.2,,,,,120,2012-10-03 06:00:00
6:00 AM,62.6,51.8,68,30.09,-9999.0,ESE,9.2,-,N/A,,Clear,120,2012-10-03 06:00:00
7:00 AM,60.8,48.2,63,30.09,-9999.0,SE,6.9,-,N/A,,Clear,130,2012-10-03 07:00:00
8:00 AM,68.0,50.0,52,30.09,-9999.0,ESE,6.9,-,N/A,,Clear,120,2012-10-03 08:00:00
9:00 AM,76,49,28,30.03,6,East,5.8,,,,Scattered Clouds,100,2012-10-03 09:00:00
9:00 AM,75.2,50.0,41,30.12,-9999.0,East,5.8,-,N/A,,Clear,100,2012-10-03 09:00:00
10:00 AM,82.4,50.0,32,30.12,-9999.0,East,10.4,-,N/A,,Clear,80,2012-10-03 10:00:00
11:00 AM,86.0,50.0,29,30.09,6.2,NE,11.5,-,N/A,,Partly Cloudy,50,2012-10-03 11:00:00
12:00 PM,87,41,12,29.95,6,ENE,9.2,,,,Scattered Clouds,60,2012-10-03 12:00:00
12:00 PM,87.8,41.0,19,30.06,6.2,ENE,9.2,-,N/A,,Partly Cloudy,60,2012-10-03 12:00:00
2:00 PM,89.6,44.6,21,30.01,6.2,ENE,9.2,-,N/A,,Scattered Clouds,60,2012-10-03 14:00:00
3:00 PM,89,44,13,29.87,6,ENE,9.2,,,,Partly Cloudy,70,2012-10-03 15:00:00
3:00 PM,89.6,44.6,21,30.01,6.2,ENE,10.4,-,N/A,,Scattered Clouds,70,2012-10-03 15:00:00
4:00 PM,87.8,46.4,24,30.01,6.2,NW,5.8,-,N/A,,Scattered Clouds,320,2012-10-03 16:00:00
5:00 PM,84.2,50.0,30,30.01,6.2,NW,11.5,-,N/A,,Partly Cloudy,320,2012-10-03 17:00:00
6:00 PM,81,53,27,29.91,6,NW,11.5,,,,Scattered Clouds,320,2012-10-03 18:00:00
6:00 PM,80.6,51.8,37,30.01,6.2,NW,5.8,-,N/A,,Partly Cloudy,320,2012-10-03 18:00:00
7:00 PM,77.0,55.4,47,30.04,-9999.0,NW,6.9,-,N/A,,Clear,320,2012-10-03 19:00:00
8:00 PM,71.6,55.4,57,30.04,-9999.0,West,3.5,-,N/A,,Clear,270,2012-10-03 20:00:00
9:00 PM,70,56,52,29.98,6,South,2.3,,,,,180,2012-10-03 21:00:00
9:00 PM,69.8,57.2,64,30.04,-9999.0,South,2.3,-,N/A,,Clear,180,2012-10-03 21:00:00
10:00 PM,69.8,55.4,60,30.04,-9999.0,South,4.6,-,N/A,,Clear,180,2012-10-03 22:00:00
11:00 PM,68.0,55.4,64,30.04,-9999.0,SSE,3.5,-,N/A,,Clear,150,2012-10-03 23:00:00